Regional Weather Roundup
Issued by NWS Austin/San Antonio, TX

Home | Current Version | Previous Version | Text Only | Print | Product List | Glossary On
Versions: 1 2 3 4 5 6 7 8 9 10 11 12 13 14 15 16 17 18 19 20 21 22 23 24 25 26 27 28 29 30 31 32 33 34 35 36 37 38 39 40 41 42 43 44 45 46 47 48 49 50
000
ASUS44 KEWX 212310
RWREWX
SOUTH TEXAS REGIONAL WEATHER ROUNDUP
NATIONAL WEATHER SERVICE AUSTIN/SAN ANTONIO TX
500 PM CST SUN JAN 21 2018

NOTE: "FAIR" INDICATED FEW OR NO CLOUDS BELOW 12,000 FEET WITH NO
SIGNIFICANT WEATHER AND/OR OBSTRUCTIONS TO VISIBILITY.

* - THESE STATIONS ARE NOT NWS OR FAA STATIONS...AND ARE NOT SUBJECT
    TO NWS AND FAA QUALITY CONTROL.

TXZ171-172-183>190-220000-
TEXAS HILL COUNTRY AND EDWARDS PLATEAU

CITY           SKY/WX    TMP DP  RH WIND       PRES   REMARKS
JUNCTION       SUNNY     73  42  32 W10G17    29.82S
*LLANO         MOSUNNY   73  55  53 SW8       29.84R
BURNET         NOT AVBL
*HORSESHOE BAY PTSUNNY   72  59  64 S7        29.82R
*KERRVILLE     CLOUDY    69  57  65 S7        29.86R
*FREDERICKSBRG MOSUNNY   69  53  57 SW9       29.85R
*ROCKSPRINGS     N/A     68  52  56 W5        29.91S
*BOERNE STAGE  SUNNY     68  57  68 SW9       29.85S
*CASTROVILLE   SUNNY     69  55  59 SW6       29.85S
HONDO          CLOUDY    71  57  61 S6        29.84R
*UVALDE        CLOUDY    70  57  63 CALM      29.86R
DEL RIO        SUNNY     66  55  67 S3        29.83S
LAUGHLIN AFB   MOSUNNY   69  55  62 SW3       29.83S
CARRIZO SPRGS  CLOUDY    72  55  56 CALM      29.83R
*EAGLE PASS    CLEAR     70  54  56 CALM      29.84R
*FAITH RANCH   SUNNY     72  55  56 CALM      29.83R
$$

TXZ173-191>194-202-209-217>225-228-220000-
CENTRAL AND SOUTH CENTRAL TEXAS

CITY           SKY/WX    TMP DP  RH WIND       PRES   REMARKS
GEORGETOWN     CLOUDY    70  62  76 S15       29.83R
AUSTIN/BERGSTM CLOUDY    69  65  86 S12G23    29.82R
AUSTIN/MABRY   CLOUDY    70  63  78 VRB7G17   29.82S
*AUSTIN/EXEC   CLOUDY    68  64  88 S12G18    29.83S
*LAGO VISTA    CLOUDY    70  63  78 SW13      29.84R
SAN MARCOS     PTSUNNY   70  64  81 S14       29.83R
NEW BRAUNFELS  PTSUNNY   70  64  81 S9        29.83R
RANDOLPH AFB   MOSUNNY   70  64  83 S9        29.83S
PT SAN ANTONIO SUNNY     72  60  67 SW7       29.82R
SAN ANTONIO    PTSUNNY   71  61  70 S9        29.84R
STINSON FIELD  CLOUDY    73  64  73 S7        29.82R
*LA GRANGE     CLOUDY    71  66  85 S13       29.83R
*GIDDINGS      CLOUDY    68  63  82 S9G16     29.85R
*GONZALES      CLOUDY    70  67  89 S14       29.83S
$$

TXZ163>164-176>182-195>201-210>213-226-227-235-220000-
SOUTHEAST TEXAS

CITY           SKY/WX    TMP DP  RH WIND       PRES   REMARKS
COLLEGE STN    CLOUDY    71  63  75 S16       29.84R
*BRYAN         CLOUDY    70  62  76 S12G22    29.85F
*CALDWELL      CLOUDY    69  63  80 S13G18    29.84S
*CROCKETT      CLOUDY    70  63  78 S12G18    29.89R
*BRENHAM       CLOUDY    71  65  81 S15G22    29.86R
HUNTSVILLE     CLOUDY    70  63  78 S10G21    29.86S
CONROE         CLOUDY    68  66  93 SE12      29.89S
HOUSTON BUSH   CLOUDY    67  66  97 SE12      29.90S
HOUSTON HOBBY  LGT RAIN  68  68 100 S10       29.90S
*HOUSTON SW AP CLOUDY    68  65  92 SE9       29.91S
PEARLAND       CLOUDY    69  68  96 SE15G21   29.92S
HOUSTON HOOKS  LGT RAIN  70  66  87 S7        29.89S
ELLINGTON FLD  CLOUDY    68  66  94 SE15      29.92S
SUGAR LAND     CLOUDY    71  66  84 SE10      29.88S
*HOUSTON EXEC  CLOUDY    70  66  88 S14       29.88S
*CLEVELAND MUN RAIN      69  63  81 S10G20    29.92S
*WHARTON       LGT RAIN  70  64  82 S14       29.90R
*COLUMBUS      CLOUDY    68  65  90 S10       29.86F
*EAGLE LAKE    RAIN      69  68  97 S10       29.86S
$$

TXZ214>216-236>238-220000-
THE UPPER TEXAS COAST

CITY           SKY/WX    TMP DP  RH WIND       PRES   REMARKS
*ORANGE        CLOUDY    69  66  93 SE9       29.98S
PORT ARTHUR    CLOUDY    68  64  87 SE12      29.95S
GALVESTON      FOG       66  64  93 SE12      29.93S VSB 1/2
ANGLETON       CLOUDY    71  66  84 S15       29.91R
*BAY CITY      CLOUDY    71  67  88 S10G16    29.90R
PALACIOS       LGT RAIN  69  67  93 SE12      29.88R FOG
$$

TXZ229>234-239>247-220000-
TEXAS COASTAL BEND AND RIO GRANDE PLAINS

CITY           SKY/WX    TMP DP  RH WIND       PRES   REMARKS
VICTORIA       CLOUDY    71  64  78 S18       29.86R
*BEEVILLE      CLOUDY    72  65  78 S14       29.82R
ROCKPORT       PTSUNNY   67  64  90 S9        29.85S FOG
*PORT ARANSAS  NOT AVBL
*PORT LAVACA   CLOUDY    71  65  82 S15G22    29.87S
*INGLESIDE     PTSUNNY   70  65  83 SE16      29.85R
CORPUS CHRISTI CLOUDY    73  65  75 S24       29.83R
CORPUS NAS     CLOUDY    70  64  81 S17G24    29.85R
*ROBSTOWN      CLOUDY    73  65  75 SE21      29.83R
ALICE          CLOUDY    77  62  59 S13       29.80R
KINGSVILLE NAS PTSUNNY   78  63  59 S18       29.82R
COTULLA        CLOUDY    74  59  59 CALM      29.83R
LAREDO         CLOUDY    71  61  70 NW3       29.83R
$$

TXZ248>255-220000-
DEEP SOUTH TEXAS

CITY           SKY/WX    TMP DP  RH WIND       PRES   REMARKS
BROWNSVILLE    FAIR      76  67  73 S28       29.85R
PORT ISABEL    FAIR      74  66  76 S23G30    29.83R
*SOUTH PADRE   NOT AVBL
HARLINGEN      SUNNY     76  65  68 S23       29.82R
*HEBBRONVILLE  MOSUNNY   74  57  55 W3        29.83S HAZE
MCALLEN        MOSUNNY   79  64  60 SE17G26   29.82R
*WESLACO         N/A     75  62  63 S21G29    29.82R
FALFURRIAS     CLOUDY    78  63  60 S10       29.81R
EDINBURG       FAIR      79  62  56 S18       29.82R
*ZAPATA        FAIR      73  58  59 CALM      29.82R
$$

TXZ213>215-236>238-242>244-246-247-251-254-255-220000-
CMAN STATIONS

STATION/POSITION TIME  TEMP    WIND        PRES    WAVE
                       AIR SEA DIR/SP/G            HT/PER
                 (UTC) (F)     (DEG/KT/KT) (MB)    (FT/S)
SABINE PASS      2242   57 52  110/ 13/ 15 1015.9
SEA RIM ST PARK  2300   56     100/ 10/ 13 1014.7
NORTH JETTY/GLS  2248          100/ 13/ 13   N/A
EAGLE POINT      2242   56 45  150/ 10/ 12 1013.3
MORGANS POINT    2242   58 50  160/  4/  7 1013.2
PORT O`CONNOR    2242   62 54  160/  7/  7 1011.5
MALAQUITE BEACH  2242   60 54  140/ 11/ 12 1010.2
BAFFIN BAY       2242   65 58  150/ 17/ 21 1010.4
PORT ISABEL      2242   71 55  160/ 13/ 18 1010.4
$$




USA.gov is the U.S. government's official web portal to all federal, state and local government web resources and services.